Regional Weather Roundup
Issued by NWS Pendleton, OR

Home | Current Version | Previous Version | Text Only | Print | Product List | Glossary On
Versions: 1 2 3 4 5 6 7 8 9 10 11 12 13 14 15 16 17 18 19 20 21 22 23 24 25 26 27 28 29 30 31 32 33 34 35 36 37 38 39 40 41 42 43 44 45 46 47 48 49 50
000
ASUS46 KPDT 231325
RWRPDT
PENDLETON REGIONAL WEATHER ROUNDUP
NATIONAL WEATHER SERVICE PENDLETON OREGON
600 AM PDT SAT SEP 23 2017

NOTE: FAIR INDICATES FEW OR NO CLOUDS BELOW 12,000 FEET WITH NO
SIGNIFICANT WEATHER AND/OR OBSTRUCTIONS TO VISIBILITY.

# INDICATES UNOFFICIAL STATION AND DATA

WAZ520-231410-
EAST SLOPES OF WASHINGTON CASCADES

CITY            SKY/WX      TMP DP  RH  WIND    PRES   REMARKS
#BULLFROG       N/A         49  44  83  W1      N/A
#CLE ELUM HS    N/A         48  40  74  CALM    29.96S
#CLE ELUM LAKE  N/A         46  38  73  CALM    29.99S
#EASTON DOT     N/A         45  41  86  CALM    N/A
#ELK HTS DOT    N/A         47  47  100 CALM    N/A
#GLENWOOD       N/A         40  39  96  CALM    30.04S
#NELSON 3SW     N/A         47  35  63  CALM    30.20F
#NILE           N/A         43  41  93  CALM    29.31S
#TEANAWAY 4NE   N/A         43  41  93  CALM    N/A
#TROUT LAKE 1NE N/A         42  41  96  CALM    30.04R
#TROUT LAKE 1E  N/A         40  38  92  CALM    30.06S
$$

WAZ521-231410-
SIMCOE HIGHLANDS

CITY            SKY/WX      TMP DP  RH  WIND    PRES   REMARKS
#BICKLETON HS   N/A         45  39  79  CALM    29.97S
#CENTERVILLE 1SWN/A         44  41  89  CALM    30.00R
#GOLDENDALE 1NE N/A         44  36  73  NW5     N/A
#GOLDENDALE 4W  N/A         44  35  70  CALM    30.07R
#GOODNOE HILLS  N/A         49  48  96  NW3     N/A
#LYLE 6NE       N/A         49  47  93  CALM    30.04R
#PITT 4SE       N/A         46  44  93  CALM    30.06R
$$

WAZ026-231410-
KITTITAS VALLEY

CITY            SKY/WX      TMP DP  RH  WIND    PRES   REMARKS
ELLENSBURG AP   PTCLDY      46  40  79  NE3     30.01S
#ELLENSBURG CWU N/A         47  42  83  CALM    29.95S
#ELLENSBURG 3NE N/A         42  39  89  CALM    28.10S
#ELLENSBURG 1E  N/A         44  41  89  CALM    30.04S
#KITTITAS 3S    N/A         43  41  93  CALM    30.00R
#MANASTASH RDG  N/A         48  48  100 W3      N/A
#ROCKY CYN DOT  N/A         50  43  77  W3      N/A
#RYEGRASS DOT   N/A         45  39  79  W8      N/A
$$

WAZ027-231410-
YAKIMA VALLEY

CITY            SKY/WX      TMP DP  RH  WIND    PRES   REMARKS
SUNNYSIDE AP    MOCLDY      40  38  92  CALM    30.03S
YAKIMA AIRPORT  MOCLDY      46  40  79  CALM    30.03R
YAKIMA-VAGABOND MOCLEAR     45  42  89  W3      30.01R
#DONALD 2NE     N/A         49  26  40  W1      30.02R
#GRANDVIEW      N/A         44  40  86  CALM    30.04R
#MABTON         N/A         43  39  86  CALM    30.03R
#MOXEE 2E       N/A         43  N/A N/A NE1     29.99R
#NACHES 2SW     N/A         49  41  74  W3      30.03R
#OUTLOOK DOT    N/A         44  42  93  CALM    29.99R
#PARKER DOT     N/A         49  43  80  CALM    30.01R
#TERRACE HTS    N/A         45  41  86  CALM    29.99R
#TOPPENISH      N/A         45  42  89  CALM    29.95R
#I82 S UMTANUM RN/A         45  39  79  NE5     N/A
#UNION GAP DOT  N/A         46  42  86  N1      30.06R
#W YAKIMA       N/A         48  41  77  CALM    30.02R
#WHITE SWAN 5E  N/A         42  39  89  CALM    30.03R
#WILEY CITY 3W  N/A         46  35  65  CALM    29.99S
#ZILLAH DOT     N/A         45  42  89  NE3     N/A
$$

WAZ028-231410-
LOWER COLUMBIA BASIN...WASHINGTON

CITY            SKY/WX      TMP DP  RH  WIND    PRES   REMARKS
PASCO           PTCLDY      50  43  77  E5      30.04R
PROSSER AWOS    N/A         43  43  100 CALM    30.06R
RICHLAND AWOS   MOCLDY      48  45  89  CALM    30.04R
#BENTON CITY    N/A         47  41  79  CALM    29.94R
#CONNELL 5N     N/A         46  42  86  NE1     30.03R
#CONNELL 5NW    N/A         45  41  86  CALM    29.98R
#ELTOPIA 6NW    N/A         47  43  86  CALM    29.00R
#KAHLOTUS       N/A         45  42  89  S9      30.03R
#KENNEWICK 3S   N/A         51  44  77  CALM    30.03R
#PATERSON       N/A         46  42  86  E1      30.02R
#PROSSER DOT    N/A         46  44  93  CALM    30.03R
#SAGEMOOR 2W    N/A         47  42  83  CALM    29.89R
#TOUCHET 2S     N/A         42  39  89  CALM    30.03R
#WEST PASCO     N/A         49  43  80  CALM    30.02R
$$

WAZ029-231410-
FOOTHILLS OF THE BLUES...WASHINGTON

CITY            SKY/WX      TMP DP  RH  WIND    PRES   REMARKS
WALLA WALLA AP  CLOUDY      51  43  74  E7      30.04R
#CLYDE 6NW      N/A         50  42  74  S3      30.03R
#DAYTON SCHOOL  N/A         49  39  68  E3      30.05S
#LOWDEN 2SE     N/A         42  40  93  CALM    30.01R
#PLEASANT VIEW 1N/A         48  41  77  S5      30.07R
#PRESCOTT       N/A         45  43  93  CALM    30.03S
#WAITSBURG 6SSE N/A         47  41  79  E2      30.06R
#WALLA WALLA 5E N/A         49  43  80  NE7     N/A
#WALLA WALLA U  N/A         47  43  86  CALM    30.04R
#WHITMAN MISSIONN/A         45  42  89  CALM    30.05S
$$

WAZ030-231410-
BLUE MOUNTAINS...WASHINGTON

CITY            SKY/WX      TMP DP  RH  WIND    PRES   REMARKS
#DIXIE 5SE      N/A         48  39  71  N1      29.98R
$$

ORZ009-041-WAZ024-231410-
COLUMBIA RIVER GORGE

CITY            SKY/WX      TMP DP  RH  WIND    PRES   REMARKS
THE DALLES AP   CLOUDY      52  48  86  SW3     30.04R
#CELILO DOT     N/A         56  46  69  SW5     N/A
#LYLE           N/A         53  50  89  E3      30.05R
#MARYHILL       N/A         53  46  77  N2      N/A
#MURDOCK        N/A         55  50  83  W5      30.00R
#RUFUS DOT      N/A         56  N/A N/A SE2     N/A
#SMITHVILLE     N/A         54  50  86  N5      29.99R

$$

ORZ510-231410-
NORTH CENTRAL OREGON

CITY            SKY/WX      TMP DP  RH  WIND    PRES   REMARKS
#ANTELOPE       N/A         37  34  89  CALM    29.93S
#CHENOWITH 1W   N/A         48  45  89  W15     N/A    WCI 42
#COW CYN RST AREN/A         44  41  89  SE1     N/A
#DUFUR          N/A         44  41  89  CALM    30.00S
#DUFUR 9E       N/A         51  40  66  W3      30.07S
#GRASS VALLEY 1SN/A         44  41  89  CALM    30.06R
#KENT DOT       N/A         42  34  73  S5      N/A
#MAUPIN SCHOOL  N/A         48  43  83  CALM    30.10R
#MORO SCHOOL    N/A         47  46  96  S3      30.04R
#SHANIKO 5WSW   N/A         43  32  65  S8      N/A
#SHANIKO 4NW    N/A         44  38  79  S5      30.04S
#TYGH VALLEY 2NEN/A         45  41  86  CALM    30.04R
#WAPANITIA AIRPON/A         46  42  86  CALM    30.05S
#WASCO DOT      N/A         46  43  89  E2      N/A
#WASCO 5NE      N/A         50  44  80  N3      30.02R
$$

ORZ511-231410-
CENTRAL OREGON

CITY            SKY/WX      TMP DP  RH  WIND    PRES   REMARKS
BEND AIRPORT    PTCLDY      41  36  82  S6      30.08R
MADRAS AIRPORT  PTCLDY      N/A N/A N/A MISG    30.08S
PRINEVILLE AP   MOCLDY      32  32  100 CALM    30.09R
REDMOND AIRPORT PTCLDY      36  31  82  SE3     30.07R
#ASHWOOD SCHOOL N/A         41  37  86  CALM    30.03R
#BEND 1SW       N/A         36  33  89  CALM    N/A
#BEND-AWBREY    N/A         41  38  89  CALM    30.06R
#BEND-KIM LN    N/A         38  35  89  CALM    30.01S
#CULVER         N/A         40  36  85  CALM    29.94S
#CULVER 8W      N/A         41  37  86  CALM    30.06S
#LAKE BILLY CHINN/A         43  N/A N/A CALM    30.15R
#MADRAS 4S      N/A         42  18  38  S7      N/A
#POWELL BUTTE   N/A         42  38  86  CALM    30.02R
#PRINEVILLE     N/A         37  34  89  CALM    30.18R
#PRINEVILLE 3N  N/A         35  33  92  CALM    30.08R
#WARM SPRINGS   N/A         43  39  86  CALM    29.92R

$$


ORZ509-231410-
EAST SLOPES OF OREGON CASCADES

CITY            SKY/WX      TMP DP  RH  WIND    PRES   REMARKS
SISTERS AWOS    N/A         36  34  92  CALM    N/A
#CAMP SHERMAN   N/A         34  31  89  CALM    30.15R
#LA PINE 4NW    N/A         27  24  88  CALM    30.14S
#LAVA BUTTE DOT N/A         31  29  92  NE7     N/A
#SISTERS ODOT   N/A         34  32  92  CALM    N/A
#SISTERS 3N     N/A         34  29  82  CALM    30.09S
#SUNRIVER       N/A         31  29  92  CALM    30.11R
#TUMALO 3W      N/A         41  34  76  W5      29.93S
#WANOGA BUTTE D N/A         35  31  85  CALM    N/A

$$

ORZ044-231410-
LOWER COLUMBIA BASIN...OREGON

CITY            SKY/WX      TMP DP  RH  WIND    PRES   REMARKS
HERMISTON       MOCLDY      42  40  93  SE6     30.04R
#BOARDMAN SCHOOLN/A         46  41  83  CALM    30.03S
#BOARDMAN 8SW   N/A         48  43  83  W2      30.04R
#ECHO 8SW       N/A         45  40  82  S1      30.04S
#I-84 EX 198 DOTN/A         45  39  79  NE8     N/A
#IONE SCHOOL    N/A         46  27  47  CALM    30.06R
#UMATILLA       N/A         45  40  82  CALM    29.97R
$$

ORZ507-231410-
NORTHERN FOOTHILLS OF THE BLUES

CITY            SKY/WX      TMP DP  RH  WIND    PRES   REMARKS
PENDLETON AIRPT PTCLDY      42  37  82  SE9     30.04R
#ADAMS 3WNW     N/A         36  34  92  CALM    30.05R
#ATHENA         N/A         39  35  85  CALM    30.08R
#CAYUSE         N/A         43  38  82  E6      30.05R
#HELIX SCHOOL   N/A         36  34  92  CALM    30.06R
#HELIX 3N       N/A         43  38  82  S7      30.01S
#HOLDMAN 5SE    N/A         44  38  79  CALM    30.03S
#HOLDMAN 6E     N/A         43  38  82  CALM    29.85R
#M-F GROVE ELEM N/A         48  39  71  CALM    30.01R
#M-FREEWATER 5SEN/A         47  40  76  NE2     30.04R
#PENDLETON DNTN N/A         40  34  79  NE1     30.04S
#PDT AQUATIC CTRN/A         40  35  82  CALM    30.02S
#PDT SUNRIDGE   N/A         39  36  89  CALM    30.06S
#PENDLETON 7NW  N/A         41  36  82  E3      30.01F
#PILOT ROCK     N/A         42  36  79  CALM    30.07R
#TUTUILLA       N/A         37  35  92  CALM    30.10R
#UMAPINE 2E     N/A         44  40  86  CALM    30.02R
#WESTON SCHOOL  N/A         46  37  71  NW1     29.98R

$$

ORZ508-231410-
SOUTHERN FOOTHILLS OF THE BLUES

CITY            SKY/WX      TMP DP  RH  WIND    PRES   REMARKS
LEXINGTON       MOCLDY      48  37  65  E8      30.08R
#AJAX           N/A         48  34  58  W2      30.19R
#FOSSIL SCHOOL  N/A         38  35  89  CALM    30.00R
#HEPPNER EOC    N/A         43  37  79  E6      29.99S
#HEPPNER 4NE    N/A         43  36  76  S1      30.05S
#LEXINGTON 2SE  N/A         46  37  71  SE7     30.01S
#MIKKALO        N/A         49  38  66  S2      30.13S
#OLEX 4N        N/A         47  41  79  S3      30.02R
#RUGGS 5NE      N/A         40  36  85  N1      30.20S
#RUGGS 2SW      N/A         44  36  73  SW7     30.07S

$$

ORZ502-503-231410-
BLUE MOUNTAINS

CITY            SKY/WX      TMP DP  RH  WIND    PRES   REMARKS
MEACHAM         CLEAR       28  26  92  CALM    30.05R
#BATTLE MTN DOT N/A         31  30  96  SE2     N/A
#GRANITE        N/A         28  23  81  CALM    29.95F
#GREENHORN 9SW  N/A         24  23  96  CALM    26.28R
#HEPPNER 15SE   N/A         32  30  92  CALM    29.95S
#LADD CYN SMT   N/A         31  30  96  S5      N/A
#LADD CREEK ODOTN/A         33  32  96  S2      N/A
#LONG CREEK HS  N/A         31  31  100 CALM    30.07R
#N POWDER DOT   N/A         29  29  100 SW2     N/A
#PIKES PEAK     N/A         46  37  71  CALM    27.99S
#TOLLGATE       N/A         34  32  92  CALM    29.90R
#TROY SCHOOL    N/A         45  42  89  CALM    29.94R
#UKIAH          N/A         26  25  96  CALM    30.07R
#WESTON 4E      N/A         41  37  86  SE3     30.03R
$$

ORZ505-231410-
JOHN DAY BASIN

CITY            SKY/WX      TMP DP  RH  WIND    PRES   REMARKS
JOHN DAY        CLEAR       34  31  89  CALM    30.09R
#JOHN DAY KJDY  N/A         29  N/A N/A N2      29.08R
#ANTELOPE 9ESE  N/A         44  39  82  CALM    N/A
#DAYVILLE SCHOOLN/A         33  30  89  CALM    30.06R
#MITCHELL       N/A         39  38  96  CALM    30.22S
#MONUMENT HS    N/A         32  29  89  CALM    30.06R
#MT. VERNON 5SE N/A         33  31  92  CALM    30.02R
#SPRAY SCHOOL   N/A         36  N/A N/A CALM    N/A
#WINLOCK        N/A         40  36  85  CALM    30.03R
$$

ORZ506-231410-
OCHOCO AND JOHN DAY HIGHLANDS

CITY            SKY/WX      TMP DP  RH  WIND    PRES   REMARKS
#HORSE RIDGE DO N/A         24  21  88  CALM    N/A
#IZEE 6NW       N/A         23  21  92  CALM    N/A
#PAULINA ODOT   N/A         25  23  92  CALM    N/A
#PINE MTN OBS   N/A         33  32  96  CALM    N/A
#PRAIRIE CITY   N/A         25  22  88  CALM    30.23R
#SENECA         N/A         18  N/A N/A CALM    N/A
#SENECA 9NW     N/A         23  21  92  CALM    30.10R
$$

ORZ049-231410-
GRANDE RONDE VALLEY

CITY            SKY/WX      TMP DP  RH  WIND    PRES   REMARKS
LA GRANDE       MOCLDY      30  28  92  CALM    30.09R FOG
#COVE           N/A         33  33  100 CALM    30.09S
#COVE SCHOOL    N/A         32  31  96  CALM    30.08S
#COVE 6NW       N/A         35  33  92  CALM    30.11S
#ELGIN 3N       N/A         38  36  92  CALM    30.48R
#ELGIN 1E       N/A         40  35  82  CALM    N/A
#IMBLER SCHOOL  N/A         33  32  96  CALM    30.04R
#ISLAND CITY 4N N/A         49  48  96  CALM    30.09R
#LA GRANDE-LEFFEN/A         36  34  92  NE1     30.47R
#UNION 1S       N/A         34  33  96  CALM    30.11R
$$

ORZ050-231410-
WALLOWA COUNTY

CITY            SKY/WX      TMP DP  RH  WIND    PRES   REMARKS
JOSEPH AIRPORT  PTCLDY      30  30  100 CALM    30.08R
#ENTERPRISE HS  N/A         30  28  92  CALM    30.03R
#IMNAHA SCHOOL  N/A         40  37  89  CALM    30.09R
#IMNAHA 10S     N/A         37  33  85  S3      30.07R
#JOSEPH         N/A         32  31  96  CALM    30.25R
#JOSEPH 3N      N/A         30  28  92  CALM    30.08R
#JOSEPH 3W      N/A         33  33  100 SW2     30.41R
#LOSTINE        N/A         31  28  88  CALM    29.93R
#LOSTINE 3SE    N/A         32  30  92  W3      30.10R
#MT HOWARD 8000 N/A         25  24  96  CALM    30.01S
#PROMISE 1S     N/A         37  36  96  CALM    30.17R
#WALLOWA LAKE   N/A         37  32  82  SE1     30.09R
#WALLOWA SCHOOL N/A         34  33  96  CALM    30.06R



$$



USA.gov is the U.S. government's official web portal to all federal, state and local government web resources and services.